Simultaneous Nadir Overpasses (SNOs) Predictions

Prediction of SNOs between AQUA and METOP-B Satellite Orbit:

Table of predicted SNOs for the next 14.0 days since TLE Epoch: 5/31/2014
Index Date (AQUA) Time (AQUA) Lat,Lon (AQUA) SZA (AQUA ) Date (METOP-B) Time (METOP-B) Lat,Lon (METOP-B) SZA (METOP-B ) Distance(km) Time Diff (sec)
1 06/01/2014 04:54:47 73.75, 100.83 51.69 06/01/2014 04:53:52 73.74, 100.84 51.69 1.51 55
2 06/01/2014 05:44:13 -73.79, -91.61 128.28 06/01/2014 05:44:32 -73.80, -91.69 128.27 2.86 19
3 06/01/2014 06:33:53 74.42, 74.58 52.40 06/01/2014 06:34:59 74.46, 77.28 52.36 80.85 66
4 06/04/2014 00:29:03 73.75, 167.25 51.34 06/04/2014 00:28:13 73.76, 167.30 51.35 1.76 50
5 06/04/2014 01:18:30 -73.84, -25.29 128.58 06/04/2014 01:18:53 -73.82, -25.23 128.60 2.58 23
6 06/06/2014 20:03:18 73.78,-126.36 51.06 06/06/2014 20:02:33 73.78,-126.25 51.07 3.54 45
7 06/06/2014 20:52:45 -73.85, 41.11 128.87 06/06/2014 20:53:13 -73.84, 41.22 128.88 3.75 28
8 06/09/2014 15:37:33 73.76, -59.90 50.80 06/09/2014 15:36:55 73.74, -59.93 50.78 2.33 38
9 06/09/2014 16:27:00 -73.83, 107.59 129.13 06/09/2014 16:27:34 -73.85, 107.66 129.12 3.11 34
10 06/12/2014 11:11:48 73.76, 6.53 50.60 06/12/2014 11:11:16 73.75, 6.50 50.60 1.80 32
11 06/12/2014 12:01:15 -73.83, 174.03 129.33 06/12/2014 12:01:56 -73.81, 173.97 129.35 2.62 41




NCC Satellite Simultaneous Nadir Overpasses (SNOs) Prediction Service
